TIME,DELAY(SENSOR),PRES,T(CTD),SAL,OXYGEN,RAWTEMP,T(OPTODE),TCPHASE,FLUOR,BETA(BETA700),BETA(BETA412),BETA(BETA440),CDOM,C(CSC),ED(ED412.40),ED(ED444.00),ED(ED489.70),ED(ED554.30),LU(LU411.80),LU(LU443.40),LU(LU489.60),LU(LU554.10),COMP,TILTX,TILTX(TILTY),CHECK
1382823333,5811,496.7200012207031000,6.8424000740051270,34.1179008483886700,84.8835983276367200,592.6146850585938000,6.8225798606872560,48.2335205078125000,52,103,87,78,77,15239,2147745197,2147422957,2148009014,2147874578,2147626157,2147070061,2148245174,2147197083,2497,4,13,16743
1382823454,5810,485.9100036621094000,7.2192001342773440,34.1225013732910160,93.3715667724609400,580.9779052734375000,7.1970539093017580,47.1096992492675800,51,103,88,80,76,15239,2147740964,2147423771,2148009883,2147873078,2147628580,2147075885,2148246619,2147201014,1007,4,13,22946
1382823578,5806,474.8500061035156000,7.4446001052856445,34.1146011352539060,99.8075027465820300,573.7255249023438000,7.4298148155212400,46.3031387329101560,51,103,86,80,75,15240,2147743369,2147424512,2148009499,2147875254,2147625270,2147075547,2148245632,2147198070,91,4,12,3280
1382823699,5808,463.7600097656250000,7.6414999961853030,34.1090011596679700,110.3009033203125000,567.7891845703125000,7.6199889183044430,45.1241683959960940,51,102,87,80,76,15237,2147744192,2147424329,2148007259,2147872064,2147625435,2147074176,2148244553,2147196690,187,4,12,36996
1382823820,5809,452.7000122070312500,7.8552999496459960,34.1030998229980500,121.6611022949218800,560.7929077148438000,7.8437271118164060,43.9053993225097660,50,103,85,79,75,15239,2147743149,2147422738,2148007972,2147872310,2147621019,2147080493,2148244589,2147202102,2408,4,13,51611
1382823932,5808,441.9400024414062500,7.9858999252319340,34.0996017456054700,128.4673004150390600,556.6124877929688000,7.9772148132324220,43.2033996582031250,52,101,86,80,75,15240,2147739209,2147426112,2148006134,2147873627,2147623360,2147079067,2148241792,2147199634,2896,3,13,417
1382824042,5807,431.6000061035156000,8.1003999710083000,34.1022987365722660,132.7115020751953000,553.2551879882812000,8.0843133926391600,42.7662887573242200,50,103,85,80,73,15238,2147741577,2147424832,2148009161,2147873462,2147623131,2147076672,2148241380,2147204132,1807,3,13,52889
1382824163,5809,420.2200012207031000,8.1547002792358400,34.1036987304687500,134.4739990234375000,551.1356201171875000,8.1518840789794920,42.5732002258300800,51,102,86,79,74,15237,2147739474,2147423734,2148008073,2147873161,2147620891,2147079213,2148239040,2147202596,1015,4,13,4069
1382824286,5808,408.9599914550781000,8.3261995315551760,34.0994987487793000,140.2579956054687500,546.2562255859375000,8.3072862625122070,41.9868583679199200,50,104,85,79,74,15237,2147737517,2147426148,2148003922,2147876425,2147620224,2147088082,2148233334,2147197714,842,3,13,50986
1382824407,5806,398.0799865722656000,8.4264001846313480,34.1007995605468750,143.6499938964843800,542.9874267578125000,8.4112815856933600,41.6426696777343750,51,104,88,78,73,15237,2147738230,2147421174,2148010715,2147874368,2147615771,2147082011,2148233490,2147202020,643,3,13,56208
1382824531,5807,387.1400146484375000,8.6065998077392580,34.1002998352050800,147.4210052490234400,537.0339965820312000,8.6004676818847660,41.2276191711425800,50,105,87,80,74,15238,2147740845,2147424475,2148007076,2147871332,2147614016,2147085778,2148240365,2147199716,2921,4,13,57195
1382824652,5808,376.6499938964844000,8.8709001541137700,34.1041984558105500,155.6595001220703000,529.1265869140625000,8.8513164520263670,40.4259300231933600,50,105,86,79,72,15233,2147735734,2147424530,2148006171,2147874112,2147616832,2147087305,2148237659,2147203547,2889,3,13,26821
1382824784,5809,365.4100036621094000,9.2270002365112300,34.1144981384277340,159.2324981689453000,517.4270019531250000,9.2215881347656250,39.9452018737793000,50,103,84,80,71,15236,2147735908,2147424822,2148006637,2147874038,2147613257,2147088237,2148235017,2147203410,2080,3,13,46277
1382824918,5809,354.5700073242187500,9.3929996490478520,34.1185989379882800,163.2910003662109400,512.2595825195312000,9.3847999572753900,39.5463409423828100,50,105,82,80,72,15234,2147736886,2147423780,2148006381,2147873746,2147612086,2147089490,2148230930,2147201920,1164,4,13,2900
1382825061,5811,343.5400085449219000,9.6625995635986330,34.1203994750976560,167.1114044189453000,504.2365112304687500,9.6378288269042970,39.1232681274414060,49,105,88,79,71,15236,2147733622,2147425435,2148009216,2147874550,2147613952,2147089837,2148232768,2147203337,1525,4,13,63849
1382825224,5807,331.1199951171875000,10.1560001373291020,34.1311988830566400,174.4163055419922000,488.3440856933594000,10.1377000808715820,38.3222885131835940,50,104,85,79,70,15235,2147733504,2147425362,2148012224,2147875602,2147612443,2147092480,2148229750,2147205787,1672,3,13,17452
1382825349,5808,320.4100036621094000,10.5059995651245120,34.1346015930175800,180.3305053710937500,476.1907043457031000,10.5188302993774410,37.7044105529785160,49,105,86,80,69,15234,2147730523,2147426020,2148011273,2147875401,2147609024,2147095853,2148226953,2147205979,722,3,13,63940
1382825473,5807,309.9200134277344000,11.0462999343872070,34.1433982849121100,185.0135955810547000,459.6640930175781000,11.0356101989746100,37.1116600036621100,50,105,83,80,68,15235,2147731401,2147424795,2148015195,2147873499,2147604973,2147100580,2148227026,2147203163,250,3,13,47423
1382825594,5808,299.8399963378906000,11.4813995361328120,34.1643981933593750,191.6956024169922000,445.6460876464844000,11.4726696014404300,36.4438095092773440,49,103,85,79,69,15236,2147726747,2147427108,2148016557,2147873947,2147602166,2147104594,2148225508,2147203117,278,3,13,65273
1382825737,5807,288.1400146484375000,12.1143999099731450,34.1932983398437500,199.4992980957031200,425.3428039550781000,12.1037797927856450,35.6259498596191400,47,103,89,80,68,15235,2147725778,2147427437,2148017709,2147870582,2147599716,2147108644,2148221476,2147204617,2869,2,14,64510
1382825871,5808,278.2200012207031000,12.5731000900268550,34.2201995849609400,203.1808013916015600,410.1943054199219000,12.5732898712158200,35.1616096496582000,50,103,85,79,68,15233,2147728530,2147429312,2148017819,2147876242,2147600795,2147116708,2148223552,2147203218,1975,3,13,57989
1382826047,5806,267.1600036621094000,13.1267995834350590,34.2686004638671900,208.0924987792968800,393.0657958984375000,13.1028995513916020,34.6035499572753900,50,105,86,80,68,15235,2147723547,2147432886,2148028480,2147870784,2147599003,2147116726,2148222317,2147205769,3142,3,13,14560
1382826213,5807,255.5099945068359400,13.8086996078491210,34.3188018798828100,209.3168945312500000,369.1487121582031000,13.8403596878051760,34.1652412414550800,48,103,88,81,67,15232,2147726061,2147434093,2148036406,2147873179,2147589732,2147126272,2148224786,2147204516,1380,2,13,64221
1382826345,5806,243.9100036621093800,14.5806999206542970,34.4126014709472660,216.0290069580078000,343.6388854980469000,14.6246795654296880,33.4036293029785160,47,102,85,79,66,15231,2147720374,2147442038,2148049234,2147872320,2147590171,2147141174,2148226294,2147207030,541,3,13,4747
1382826469,5808,233.0700073242187500,15.6339998245239260,34.5323982238769500,216.3703002929687500,312.2413024902344000,15.5874395370483400,32.9228515625000000,49,105,87,79,65,15228,2147720320,2147448182,2148066934,2147872914,2147586340,2147143387,2148229897,2147211830,2674,3,14,10281
1382826601,5809,222.5000000000000000,16.1151008605957030,34.5922012329101560,219.2371978759765600,293.5751037597656000,16.1587600708007800,32.4983215332031250,48,107,86,79,65,15226,2147717622,2147460297,2148087963,2147873993,2147581440,2147161453,2148233371,2147209856,1687,3,13,5156
1382826747,5807,211.9900054931640600,16.8269996643066400,34.6679992675781250,217.1558990478515600,271.9494934082031000,16.8199691772460940,32.3017311096191400,50,110,87,79,64,15221,2147716233,2147472402,2148119469,2147872100,2147576576,2147173577,2148245421,2147212571,972,2,14,35700
1382826912,5803,201.2299957275390600,17.3773002624511720,34.7345008850097660,216.4293975830078000,253.3764953613281200,17.3874092102050780,32.0792388916015600,54,108,85,80,65,15214,2147719012,2147494930,2148157220,2147873673,2147575451,2147188854,2148257097,2147214592,2798,2,15,14942
1382826967,5805,197.7500000000000000,17.6081008911132800,34.7616996765136700,218.4434967041015600,246.8771057128906200,17.5859203338623050,31.8808593750000000,54,108,87,79,64,15211,2147715593,2147498724,2148172964,2147870372,2147576576,2147194560,2148267529,2147219730,2528,3,14,59097
1382827047,5806,193.4199981689453000,17.8686008453369140,34.7933006286621100,219.2310943603515600,237.0547027587890600,17.8859004974365230,31.7026405334472660,56,110,85,80,62,15214,2147719067,2147508032,2148192301,2147872932,2147573065,2147205732,2148273920,2147212388,1544,2,14,56938
1382827135,5808,189.5099945068359400,18.0755996704101560,34.8194007873535160,219.7158050537109400,230.4756927490234400,18.0868091583251950,31.5860691070556640,57,109,86,79,63,15210,2147722779,2147524096,2148212498,2147872301,2147572150,2147216146,2148284635,2147217133,41,2,14,48712
1382827223,5809,185.4799957275390600,18.5273990631103500,34.8704986572265600,219.1884002685547000,217.1972045898437500,18.4923191070556640,31.4312095642089840,61,110,86,81,62,15209,2147726784,2147537088,2148242413,2147875840,2147576137,2147228507,2148295323,2147220873,2722,2,15,65446
1382827311,5808,181.6600036621093800,18.6884002685546880,34.8903007507324200,219.4687042236328000,211.6197052001953000,18.6626605987548830,31.3400707244873050,62,110,89,80,62,15202,2147726390,2147553106,2148271542,2147876644,2147574893,2147237613,2148308726,2147221568,2623,2,15,37981
1382827401,5807,177.9900054931640600,18.7138004302978500,34.8967018127441400,219.8822021484375000,210.0377044677734400,18.7109794616699220,31.2971992492675780,62,109,87,83,62,15199,2147732489,2147569673,2148303497,2147872886,2147578468,2147246372,2148323081,2147223798,2533,2,15,41780
1382827478,5808,174.7599945068359400,18.9377994537353500,34.9225997924804700,219.2812042236328000,203.2994995117187500,18.9167900085449220,31.2365303039550780,63,110,87,81,63,15195,2147738166,2147586761,2148331931,2147875163,2147580845,2147259465,2148336219,2147222162,2138,2,15,14477
1382827577,5811,171.0000000000000000,19.0820007324218750,34.9394989013671900,218.9945983886718800,198.2671051025390600,19.0705204010009770,31.1833496093750000,66,113,88,81,63,15199,2147745892,2147613677,2148373440,2147873874,2147584868,2147272219,2148357522,2147223579,1643,2,15,58286
1382827702,5805,166.1900024414062500,19.3099994659423830,34.9534988403320300,217.2458038330078000,192.3300933837890600,19.2519092559814450,31.1947593688964840,64,117,85,81,63,15195,2147759826,2147653476,2148447853,2147875035,2147584557,2147301037,2148391835,2147229193,1382,2,15,7672
1382827779,5807,163.0200042724609400,19.4951992034912100,34.9656982421875000,213.6390075683593800,184.7622070312500000,19.4831790924072270,31.2835903167724600,66,111,85,82,62,15198,2147773101,2147685632,2148499264,2147872502,2147589458,2147313801,2148408365,2147228562,1958,2,15,62146
1382827878,5805,158.9700012207031200,19.6331005096435550,34.9663009643554700,208.2926025390625000,179.2402954101562500,19.6519699096679700,31.4995803833007800,67,111,85,80,63,15194,2147795428,2147728411,2148571776,2147873353,2147597732,2147335835,2148443008,2147232685,1840,2,15,2617
1382828009,5806,153.5700073242187500,19.9570999145507800,35.0061988830566400,205.1466979980468800,170.8527984619140600,19.9084300994873050,31.5607795715332030,65,112,85,80,62,15195,2147833846,2147805339,2148696329,2147875812,2147609197,2147379209,2148497042,2147237321,657,2,14,30326
1382828086,5811,149.6300048828125000,20.3738002777099600,35.0611991882324200,207.2375946044922000,156.3643035888672000,20.3516902923584000,31.2484798431396500,71,115,87,81,61,15188,2147859501,2147869165,2148798866,2147872009,2147620534,2147416484,2148540242,2147243565,2604,2,15,18241
1382828174,5805,145.2799987792968800,20.7129001617431640,35.1125984191894500,210.1855926513672000,146.4694061279297000,20.6546306610107420,30.9548892974853500,79,119,88,80,61,15183,2147906112,2147954148,2148939190,2147879158,2147636964,2147458386,2148604086,2147247323,2146,2,15,62822
1382828251,5808,141.7200012207031200,20.8243999481201170,35.1265983581543000,212.0294952392578000,141.2113037109375000,20.8157005310058600,30.7856101989746100,81,117,88,80,61,15173,2147954578,2148042724,2149077961,2147879094,2147653083,2147511661,2148659254,2147253348,3066,2,16,18864
1382828341,5810,137.6300048828125000,21.2318992614746100,35.1314010620117200,212.3829040527343800,128.4891967773437500,21.2056694030761720,30.5979499816894530,92,119,89,83,62,15171,2148015570,2148158180,2149259547,2147885522,2147673499,2147562742,2148733632,2147256950,580,2,16,48428
1382828451,5809,133.9400024414062500,21.3341007232666000,35.1456985473632800,213.0092010498047000,124.8843002319336000,21.3162498474121100,30.5172100067138670,105,122,90,82,62,15147,2148091904,2148287250,2149456969,2147886930,2147701988,2147621705,2148806683,2147263286,117,2,15,24354
1382828583,5807,130.3500061035156200,21.3775997161865230,35.1511001586914060,213.6475067138672000,123.0537033081054700,21.3724098205566400,30.4592704772949220,111,120,89,83,62,15151,2148204352,2148475200,2149733476,2147886802,2147741540,2147701942,2148903936,2147272027,2512,1,15,25255
1382828712,5809,125.5400009155273400,21.5454006195068360,35.1570014953613300,213.7998046875000000,117.0056991577148400,21.5580291748046880,30.3717193603515620,112,125,88,81,61,15140,2148453129,2148854701,2150254912,2147895753,2147823844,2147863076,2149093193,2147289344,1561,2,15,27582
1382828800,5813,121.5899963378906200,21.9176998138427730,35.1931991577148440,215.4987030029297000,105.0747985839843800,21.9245300292968750,30.1269207000732420,130,121,89,82,61,15119,2148706651,2149229741,2150751798,2147898432,2147914496,2148009252,2149271250,2147304658,614,2,15,21398
1382828888,5808,117.6200027465820300,22.1455993652343750,35.1901016235351560,218.2243957519531200,98.6638488769531200,22.1216506958007800,29.9030609130859380,146,125,88,82,61,15115,2149031625,2149704265,2151364608,2147911872,2148021659,2148189430,2149487798,2147326208,3132,2,15,33129
1382828978,5811,113.7500000000000000,22.2196006774902340,35.1796989440918000,218.3096008300781200,96.3542633056640600,22.1926994323730470,29.8688392639160160,148,122,90,82,61,15105,2149445476,2150274468,2152067456,2147922221,2148154084,2148404909,2149722688,2147352347,2818,2,15,36563
1382829077,5809,109.7900009155273400,22.3138008117675780,35.1875991821289060,219.0838928222656200,92.9510269165039000,22.2974205017089840,29.7853107452392580,158,121,87,83,61,15098,2150026989,2151042029,2152953974,2147940352,2148342555,2148697435,2150045650,2147382116,3421,2,15,10346
1382829187,5812,106.3000030517578100,22.4178009033203120,35.1966018676757800,221.2317962646484400,89.3039093017578100,22.4096908569335940,29.6298999786376950,164,125,87,83,60,15094,2150732745,2151918180,2153885147,2147962276,2148572169,2149028598,2150377810,2147419337,3109,1,15,38135
1382829329,5810,102.0500030517578100,22.5386009216308600,35.2182998657226560,223.6143035888672000,85.3308563232421900,22.5320606231689450,29.4602203369140620,158,122,87,83,62,15082,2152265088,2153726144,2155706678,2147996205,2149078966,2149701092,2151021074,2147489325,2155,1,15,28617
1382829417,5807,99.1399993896484400,23.0983009338378900,35.3177986145019500,231.2872924804687500,67.8915634155273400,23.0698604583740230,28.8674507141113280,141,122,92,84,59,15094,2153467017,2155125650,2157039360,2148023222,2149552118,2150296502,2151578249,2147543149,742,2,15,18199
1382829494,5808,97.2600021362304700,23.1816997528076170,35.3146018981933600,237.4118041992187500,64.8770980834961000,23.1629505157470700,28.5449104309082030,113,120,89,83,60,15098,2154402797,2156160320,2157964352,2148048969,2149989138,2150839570,2152033243,2147587410,3530,1,15,43239
1382829591,5805,94.4100036621093800,23.4153995513916000,35.2859001159668000,238.1842956542968800,57.1230812072753900,23.4025707244873050,28.4125404357910160,97,122,88,84,59,15096,2156140562,2158035620,2159619830,2148097993,2150782720,2151798134,2152862162,2147674112,2942,1,15,32898
1382829646,5809,92.4100036621093800,23.6861991882324220,35.3134002685546900,238.3424987792968800,51.2890892028808600,23.5830307006835940,28.3322601318359380,87,122,89,82,59,15091,2157348333,2159288905,2160726701,2148133056,2151359762,2152496594,2153438098,2147731931,2968,1,16,48291
1382829701,5809,90.4499969482421900,23.7241992950439450,35.3189010620117200,240.2270050048828000,47.2089385986328100,23.7093391418457030,28.1965103149414060,88,121,91,85,59,15101,2158653878,2160632832,2161902272,2148171876,2152027099,2153285970,2154072658,2147795904,3295,1,16,43797
1382829756,5807,88.3700027465820300,23.8006992340087900,35.3291015625000000,242.5877075195312500,44.6452217102050800,23.7887401580810550,28.0591907501220700,82,123,91,83,58,15101,2160285001,2162280914,2163356041,2148231195,2152864283,2154256731,2154834304,2147873472,3393,1,16,48511
1382829811,5807,86.3399963378906200,24.3645000457763670,35.3501014709472660,244.0081939697265600,27.3440895080566400,24.3254108428955080,27.7826499938964840,78,125,91,83,58,15097,2161860269,2163866258,2164742080,2148288960,2153730962,2155238107,2155592475,2147948361,3103,0,16,11133
1382829896,5804,84.3600006103515600,24.4843997955322270,35.3578987121582000,247.6445007324218800,22.8935699462890620,24.4637107849121100,27.5700397491455080,76,125,89,84,57,15101,2163622418,2165586176,2166203840,2148350674,2154826880,2156434404,2156467419,2148034752,2655,1,16,4940
1382829951,5806,82.7900009155273400,24.5305995941162100,35.3597984313964840,248.8361968994140600,21.2905998229980470,24.5135498046875000,27.4991798400878900,73,125,92,84,58,15100,2165138633,2167026020,2167419794,2148411584,2155778020,2157463515,2157203218,2148102482,2700,1,16,60553
1382830006,5805,81.1500015258789000,24.6305999755859380,35.3653984069824200,249.3932952880859400,18.0766906738281250,24.6135101318359380,27.4361190795898440,73,123,91,86,56,15094,2166805824,2168584045,2168758454,2148477165,2156829805,2158597824,2158015250,2148186477,3587,1,16,8478
1382830083,5810,78.9700012207031200,25.0321006774902340,35.3904991149902340,248.6363983154297000,5.9447231292724610,24.9913806915283200,27.3202991485595700,73,125,89,85,58,15089,2169068644,2170709696,2170546093,2148578669,2158280658,2160121261,2159101897,2148299026,3146,1,16,1793
1382830160,5808,77.3600006103515600,25.0716991424560550,35.3955993652343750,249.1033020019531200,4.4656720161437990,25.0375003814697270,27.2822608947753900,72,124,88,85,56,15086,2170768941,2172318921,2171958418,2148671094,2159382464,2161273472,2159932845,2148384246,2749,1,16,50295
1382830256,5810,74.6900024414062500,25.3397998809814450,35.4071998596191400,248.3227996826172000,-3.5669720172882080,25.2882194519042970,27.2177391052246100,68,125,91,84,58,15093,2174427675,2175700141,2174882642,2148866587,2161882294,2163839917,2161752402,2148575570,3492,1,16,21199
1382830311,5809,72.6600036621093800,25.4969005584716800,35.4151000976562500,248.2080993652343800,-9.4544553756713870,25.4722309112548830,27.1510200500488280,68,122,91,84,57,15092,2176747245,2177765961,2176633673,2149015798,2163610340,2165545526,2162894317,2148701248,109,1,16,1985
1382830366,5803,71.1699981689453100,25.6396999359130860,35.4177017211914060,248.3287048339843800,-12.2802801132202150,25.5606193542480470,27.1115894317626950,68,123,91,86,56,15083,2178435766,2179218779,2177773184,2149104420,2164933540,2166817462,2163719908,2148781604,3405,1,16,60813
1382830562,5808,69.3199996948242200,25.9507999420166000,35.4146003723144500,246.8527984619140600,-24.1258602142334000,25.9317092895507800,27.0308303833007800,66,123,91,83,55,15090,2181743808,2181930020,2179802752,2149279094,2167724059,2169344155,2165240832,2148938852,701,1,16,33685
1382830639,5809,67.3199996948242200,26.2735004425048830,35.4225006103515600,244.8014068603515600,-34.1634216308593750,26.2468700408935550,26.9970207214355470,66,124,88,86,59,15087,2184747492,2184483995,2181897362,2149497709,2170238336,2171651730,2166692982,2149102646,805,0,16,25878
1382830738,5806,65.3099975585937500,26.5196990966796880,35.4342994689941400,242.7129058837890600,-41.8223381042480500,26.4878005981445300,26.9943199157714840,65,122,91,86,55,15089,2187714486,2187074002,2184116214,2149756333,2172783049,2174005650,2168233545,2149282249,356,1,16,16896
1382830857,5809,62.5299987792968750,26.8036003112792970,35.4514007568359400,239.9620971679687500,-50.7104110717773440,26.7679195404052730,27.0065803527832030,64,122,89,84,55,15088,2191734253,2190568109,2187093732,2150140123,2176653202,2177492278,2170455689,2149542427,3353,1,17,11195
1382830912,5808,60.7999992370605500,27.0174999237060550,35.4686012268066400,237.8627929687500000,-57.3840904235839840,26.9786205291748050,27.0179100036621100,64,122,92,85,58,15085,2193864128,2192399049,2188612050,2150354852,2178977636,2179504009,2171673993,2149684928,2926,2,16,13062
1382830989,5808,59.6800003051757800,27.2411003112792970,35.4963989257812500,235.7843933105468800,-64.3285064697265600,27.1982192993164060,27.0257892608642580,63,125,91,85,56,15079,2195219364,2193526848,2189501092,2150483547,2180825307,2181008155,2172489371,2149774464,3006,1,16,63187
1382831228,5805,57.1199989318847660,27.6488990783691400,35.5055999755859400,230.7268066406250000,-77.4211502075195300,27.6132297515869140,27.0945301055908200,61,123,88,85,55,15079,2200344192,2198019209,2193357184,2151130477,2187971236,2186838308,2175798016,2150163611,619,0,16,49578
1382831294,5805,55.0600013732910160,27.7355003356933600,35.5136985778808600,229.1773986816406200,-80.7976226806640600,27.7204704284667970,27.1242599487304700,60,121,89,85,56,15073,2203674468,2201139931,2196286436,2151655515,2192292315,2190548425,2178118345,2150463917,209,1,16,22475
1382831360,5808,53.1300010681152340,27.7560005187988280,35.5134010314941400,228.4920959472656200,-81.9542770385742200,27.7572307586669920,27.1415901184082030,61,121,91,83,55,15079,2206900150,2204149933,2199088210,2152229494,2196396370,2194018331,2180277440,2150745225,3352,0,16,351
1382831426,5809,51.3899993896484400,27.8441009521484380,35.4968986511230500,227.7129058837890600,-84.3816070556640600,27.8344097137451170,27.1480293273925780,59,121,90,84,53,15068,2209155904,2206308196,2201043693,2152610569,2199956269,2196957540,2182009536,2150968082,2342,1,16,61213
1382831511,5816,49.0400009155273440,27.8861999511718750,35.4776000976562500,226.8594055175781200,-85.7907333374023400,27.8792400360107420,27.1703090667724600,59,120,89,86,54,15079,2213616246,2210471478,2204903643,2153677348,2206436626,2202227574,2185131328,2151445229,1810,1,16,32784
1382831566,5808,47.0099983215332000,27.8763008117675780,35.4399986267089840,226.5093994140625000,-85.6721267700195300,27.8754596710205080,27.1878700256347660,59,119,89,86,54,15079,2216979766,2213638912,2207916205,2154472018,2211789924,2206555776,2187654144,2151797988,1120,1,16,37167
1382831621,5807,45.2200012207031250,27.8518009185791000,35.3862991333007800,225.6793975830078000,-84.8144302368164000,27.8481807708740230,27.2370300292968750,58,119,89,84,56,15077,2219484580,2215908306,2210058514,2155187538,2216543597,2210315721,2189824768,2152121764,134,1,16,20111
1382831676,5803,43.7500000000000000,27.8190002441406250,35.3501014709472660,224.5326995849609400,-83.9353027343750000,27.8202209472656250,27.3014507293701170,56,116,89,83,56,15090,2220955081,2217317860,2211436763,2155754340,2220465088,2213287177,2191411401,2152346505,2736,1,16,61543
1382831742,5809,42.1500015258789060,27.8134994506835940,35.3410987854003900,223.4084014892578000,-83.7582778930664000,27.8145904541015620,27.3565196990966800,55,115,89,83,56,15102,2222895241,2219306870,2213529270,2156669065,2225191588,2216888155,2193365869,2152693403,2191,1,16,7547